User: anonymous   Login
Location: Unspecified
(0.0000°N, 0.0000°E)
Time: 00:20:39
(UTC+00:00)
Language:

OBJECT A - Orbit

View from above orbital plane
View from above orbital plane
View from above satellite
View from above satellite

Ground track
Ground track

The orbit data is extracted from the following two-line orbital elements,

1 41879U 16075A   17049.14630996 0.00000000  00000-0  00000-0 0    00
2 41879   0.0439  26.0830 0265392  72.4366 341.1016  1.00270000    07
Epoch (UTC): 18 February 2017 03:30:41
Eccentricity: 0.0265392
inclination: 0.0439°
perigee height: 34668 km
apogee height: 36906 km
right ascension of ascending node: 26.0830°
argument of perigee: 72.4366°
revolutions per day: 1.00270000
mean anomaly at epoch: 341.1016°
orbit number at epoch: 0

The dashed part of the orbit path shows where the satellite is in the earth's shadow,  

DLR